Regional Weather Roundup
Issued by NWS

Home | Current Version | Previous Version | Graphics & Text | Print | Product List | Glossary On
Versions: 1 2 3 4 5 6 7 8 9 10 11 12 13 14 15 16 17 18 19 20 21 22 23 24 25 26 27 28 29 30 31 32 33 34 35 36 37 38 39 40 41 42 43 44 45 46 47 48 49 50
000
ASUS43 KMPX 260710
RWRMN
WEATHER ROUNDUP FOR MINNESOTA
NATIONAL WEATHER SERVICE TWIN CITIES/CHANHASSEN MN
200 AM CDT SAT MAY 26 2018


NOTE: "FAIR" INDICATES FEW OR NO CLOUDS BELOW 12,000 FEET WITH NO
SIGNIFICANT WEATHER AND/OR OBSTRUCTIONS TO VISIBILITY. N/A MEANS
CURRENT SKY AND/OR WEATHER CONDITIONS ARE NOT AVAILABLE.

MNZ060>063-068>070-260800-
   Twin Cities Metro

CITY           SKY/WX    TMP DP  RH WIND       PRES   REMARKS
TWIN CITIES    FAIR      70  60  70 SW8       29.70F
ST PAUL        FAIR      67  59  75 SE6       29.70S
CRYSTAL        FAIR      68  59  73 S7        29.68S
BLAINE         FAIR      68  61  77 S8        29.69S
LAKEVILLE      FAIR      66  61  82 S3        29.71S
EDEN PRAIRIE   FAIR      66  60  81 SW6       29.69F
SOUTH ST PAUL  FAIR      67  58  72 S3        29.70S
LAKE ELMO      FAIR      64  59  82 SW5       29.70F
$$
MNZ001>005-007-008-013>017-022>024-027-028-260800-
   Northwest Minnesota

CITY           SKY/WX    TMP DP  RH WIND       PRES   REMARKS
BEMIDJI        FAIR      64  53  67 CALM      29.63S
HALLOCK        FAIR      63  54  72 CALM      29.59S
ROSEAU         FAIR      64  57  77 W5        29.59R
WARROAD        FAIR      63  57  82 SW7       29.59S
THIEF RVR FALL FAIR      64  55  72 NW3       29.62S
CROOKSTON      FAIR      63  54  72 NW3       29.62S
FOSSTON        FAIR      61  52  72 S6        29.63S
DETROIT LAKES  FAIR      64  55  72 CALM      29.66S
MOORHEAD       FAIR      68  50  52 SW7       29.64R
PARK RAPIDS    FAIR      66  54  65 W3        29.64S
MAHNOMEN       FAIR      64  53  65 SW5       29.63S
$$
MNZ006-009>011-018-025>026-260800-
   North Central Minnesota

CITY           SKY/WX    TMP DP  RH WIND       PRES   REMARKS
BAUDETTE         N/A     62  55  77 MISG      29.58S
INTL FALLS     FAIR      59  57  93 S6        29.60S
WASKISH        FAIR      57  55  94 CALM      29.61S
BIG FORK       FAIR      61  55  82 CALM      29.62S
GRAND RAPIDS   FAIR      61  59  93 S6        29.65F
CRANE LAKE     MOCLDY    59  57  94 CALM      29.65R
ORR            FAIR      61  57  88 CALM      29.60F
COOK           FAIR      61  57  88 CALM      29.64F
WALKER         PTSUNNY   60  55  83 CALM      29.64S
$$
MNZ012-019>021-037-260800-
   Northeast Minnesota

CITY           SKY/WX    TMP DP  RH WIND       PRES   REMARKS
DULUTH         FAIR      70  58  65 SW12      29.64F
ELY            FAIR      63  55  77 CALM      29.64S
HIBBING        LGT RAIN  65  55  70 S3G20     29.62F
EVELETH        LGT RAIN  68  55  64 S9        29.64F
DULUTH HARBOR  FAIR      66  63  88 SW8       29.62F
TWO HARBORS    FAIR      59  55  88 CALM      29.61F
SILVER BAY     FAIR      57  57 100 CALM      29.61F
GRAND MARAIS     N/A     45  44  97 CALM      29.61F
G MARAIS ARPRT FAIR      57  52  82 CALM      29.66F
$$
MNZ029>031-032-039>041-046>048-054>057-064-260800-
   West Central Minnesota

CITY           SKY/WX    TMP DP  RH WIND       PRES   REMARKS
FERGUS FALLS   FAIR      66  52  59 W3        29.62R
WHEATON        CLEAR     70  54  56 SW6       29.68S
MORRIS         CLEAR     70  52  52 W9        29.67S
ALEXANDRIA     FAIR      70  55  59 S8        29.69S
ELBOW LAKE     FAIR      66  52  60 SW3       29.67S
WADENA         FAIR      66  55  68 W5        29.65S
GLENWOOD       FAIR      64  59  82 SW9       29.67S
APPLETON       CLEAR     68  55  64 SW5       29.68S
BENSON         CLEAR     66  61  82 CALM      29.70R
ORTONVILLE     CLEAR     70  54  56 W7        29.69S
MADISON        CLEAR     66  55  68 W5        29.70S
WILLMAR        FAIR      63  57  82 CALM      29.72S
$$
MNZ033>034-036-042>043-049>051-058-059-260800-
   Central Minnesota

CITY           SKY/WX    TMP DP  RH WIND       PRES   REMARKS
ST CLOUD       FAIR      65  56  72 MISG      29.67F
SAUK CENTRE    FAIR      66  59  77 CALM      29.68S
PAYNESVILLE    FAIR      67  61  80 SW6       29.69F
AITKIN         FAIR      64  55  72 S3        29.63S
PINE RIVER     FAIR      57  52  82 CALM      29.68S
BRAINERD       FAIR      70  57  63 S6        29.64F
STAPLES        FAIR      64  57  77 SW3       29.65S
LONG PRAIRIE   FAIR      63  55  77 S7        29.68S
LITTLE FALLS   FAIR      66  57  72 S3        29.66F
LITCHFIELD     FAIR      66  61  82 CALM      29.70F
BUFFALO        FAIR      65  57  75 S5        29.70S
MAPLE LAKE     FAIR      66  60  78 S3        29.70S
HUTCHINSON     FAIR      66  62  85 S3        29.72S
$$
MNZ037-044-045-052-053-260800-
   East Central Minnesota

CITY           SKY/WX    TMP DP  RH WIND       PRES   REMARKS
PRINCETON      FAIR      66  57  72 S3        29.67F
MORA           FAIR      64  59  82 S3        29.68F
CAMBRIDGE      FAIR      70  55  60 S5        29.68S
RUSH CITY      FAIR      67  57  71 S3        29.67F
MOOSE LAKE     CLOUDY    61  57  88 CALM      29.64F
HINCKLEY       FAIR      64  61  88 CALM      29.67S
CLOQUET        FAIR      68  55  64 SW8       29.65F
MCGREGOR       FAIR      66  57  72 CALM      29.64F
$$
MNZ071>073-080-081-089-090-097-098-260800-
   Southwest Minnesota

CITY           SKY/WX    TMP DP  RH WIND       PRES   REMARKS
MONTEVIDEO     CLEAR     70  57  64 W8        29.69F
CANBY          CLEAR     71  54  54 SW7       29.73S
MARSHALL       CLEAR     68  58  70 W8        29.72S
REDWOOD FALLS  CLEAR     65  61  87 CALM      29.69F
OLIVIA         CLEAR     64  61  88 S6        29.70S
PIPESTONE      CLEAR     63  57  82 CALM      29.77S
WINDOM         CLEAR     68  48  49 S5        29.74S
WORTHINGTON    CLEAR     67  57  70 SW6       29.77S
JACKSON        CLEAR     64  59  82 S6        29.76S
TRACY          CLEAR     70  59  69 SW8       29.73S
SLAYTON        HVY RAIN  72  57  60 W8        29.77S
$$
MNZ065>067-074>077-082>085-091>093-260800-
   South Central Minnesota

CITY           SKY/WX    TMP DP  RH WIND       PRES   REMARKS
MANKATO        FAIR      66  61  84 S8        29.73S
NEW ULM        CLEAR     63  57  82 SE6       29.71F
ST JAMES       CLEAR     68  59  73 S9        29.74S
FAIRMONT       CLEAR     69  61  75 SW8       29.74F
GLENCOE        FAIR      68  60  77 S8        29.70S
FARIBAULT      FAIR      64  61  88 CALM      29.73S
OWATONNA       FAIR      66  63  88 S13       29.73F
WASECA         FAIR      64  59  82 S6        29.74F
ALBERT LEA     FAIR      64  61  88 SE6       29.75F
$$
MNZ078>079-086>088-094>096-260800-
   Southeast Minnesota

CITY           SKY/WX    TMP DP  RH WIND       PRES   REMARKS
ROCHESTER      FAIR      64  61  90 S13       29.74F
RED WING       FAIR      63  59  88 CALM      29.70S
STANTON        FAIR      67  61  80 S7        29.70F
DODGE CENTER   FAIR      64  59  82 S9        29.74F
WINONA         FAIR      63  59  88 CALM      29.71F
AUSTIN         FAIR      63  59  88 S5        29.75F
PRESTON        FAIR      63  58  84 SW12      29.75F
$$
ABBREVIATIONS USED IN REMARKS
   TC - TEMPERATURES IN CELSIUS
  WCI - WIND CHILL INDEX
   HX - HEAT INDEX
  VSB - VISIBILITY
$$




USA.gov is the U.S. government's official web portal to all federal, state and local government web resources and services.